Total_Precipitation_Accumulation
1.94 1.82 1.29 0.81 0.73 0.57 0.43 0.41 0.39 0.41 0.45 0.65 0.70 0.65 0.74 0.70 0.63 0.60 0.56 0.59 0.68 0.86 1.05 1.21 1.46 1.73 1.92 2.11 2.18 2.23 2.23 2.21 2.22 2.33 2.30 2.07 1.83 1.66 1.46 1.34 1.32 1.26 1.23 1.28
1.62 1.31 0.71 0.55 0.61 0.56 0.45 0.44 0.43 0.42 0.48 0.65 0.69 0.63 0.62 0.61 0.57 0.55 0.59 0.56 0.59 0.68 0.84 0.96 1.20 1.44 1.66 1.87 2.10 2.18 2.22 2.28 2.10 1.95 2.07 2.09 2.01 1.84 1.67 1.57 1.49 1.38 1.33 1.31
1.20 0.86 0.62 0.56 0.56 0.56 0.44 0.41 0.38 0.45 0.55 0.62 0.68 0.68 0.54 0.50 0.48 0.49 0.51 0.50 0.52 0.63 0.73 0.83 0.97 1.12 1.36 1.58 1.82 1.99 2.12 2.24 2.26 2.17 2.25 2.20 2.11 1.90 1.63 1.44 1.41 1.41 1.41 1.41
1.09 0.66 0.61 0.61 0.49 0.45 0.40 0.27 0.33 0.44 0.66 0.69 0.65 0.79 0.47 0.43 0.47 0.48 0.52 0.52 0.50 0.57 0.67 0.77 0.88 0.97 1.10 1.32 1.51 1.66 1.93 2.16 2.28 2.35 2.26 2.13 1.94 1.70 1.47 1.42 1.52 1.55 1.51 1.45
1.04 0.68 0.63 0.65 0.44 0.37 0.34 0.25 0.35 0.48 0.65 0.72 0.51 0.63 0.50 0.41 0.53 0.58 0.59 0.56 0.52 0.54 0.63 0.70 0.80 0.90 0.99 1.16 1.33 1.42 1.64 1.95 2.09 2.03 1.99 2.07 1.96 1.76 1.63 1.57 1.53 1.50 1.43 1.38
0.82 0.63 0.66 0.60 0.43 0.36 0.35 0.42 0.50 0.56 0.82 0.98 0.59 0.65 0.61 0.59 0.66 0.61 0.55 0.51 0.55 0.61 0.67 0.73 0.79 0.85 0.90 0.98 1.17 1.33 1.39 1.58 1.75 1.77 1.79 1.84 1.77 1.71 1.61 1.48 1.43 1.44 1.39 1.30
1.12 0.79 0.59 0.54 0.59 0.47 0.45 0.77 1.09 1.09 1.04 0.77 0.47 0.59 0.68 0.65 0.69 0.69 0.63 0.59 0.65 0.71 0.80 0.85 0.83 0.87 0.92 0.95 0.98 1.12 1.21 1.30 1.45 1.61 1.70 1.67 1.68 1.65 1.58 1.47 1.41 1.39 1.35 1.27
1.10 1.05 0.60 0.48 0.55 0.49 0.40 0.57 0.82 0.82 0.65 0.45 0.37 0.56 0.67 0.67 0.66 0.66 0.66 0.67 0.70 0.81 0.92 0.96 0.96 1.06 1.10 1.09 1.02 1.02 1.06 1.08 1.18 1.37 1.52 1.55 1.58 1.54 1.44 1.35 1.28 1.23 1.17 1.16
0.64 0.70 0.41 0.31 0.31 0.40 0.46 0.42 0.36 0.71 0.63 0.49 0.42 0.45 0.52 0.55 0.59 0.65 0.68 0.67 0.72 0.85 0.97 1.04 1.09 1.12 1.08 1.04 1.03 1.02 1.06 1.02 0.97 1.05 1.18 1.26 1.33 1.32 1.25 1.18 1.10 1.08 1.07 1.08
0.31 0.49 0.42 0.35 0.37 0.43 0.40 0.34 0.50 1.00 0.96 0.66 0.41 0.41 0.61 0.63 0.65 0.65 0.64 0.64 0.73 0.77 0.85 0.94 0.95 0.94 0.97 0.98 0.97 0.99 1.02 1.05 0.99 0.95 1.00 1.09 1.08 1.05 1.01 0.99 0.94 0.89 0.89 0.90
0.22 0.35 0.43 0.49 0.45 0.42 0.40 0.44 0.55 0.72 0.70 0.72 0.47 0.54 0.68 0.65 0.61 0.58 0.56 0.59 0.64 0.65 0.65 0.68 0.70 0.74 0.79 0.83 0.89 0.97 1.06 1.05 0.94 0.95 0.98 0.99 1.00 1.01 0.93 0.86 0.85 0.86 0.83 0.82
0.19 0.29 0.41 0.39 0.25 0.23 0.30 0.33 0.46 0.83 0.67 0.53 0.50 0.55 0.54 0.50 0.48 0.46 0.49 0.53 0.54 0.57 0.56 0.55 0.54 0.54 0.55 0.59 0.65 0.74 0.83 0.83 0.80 0.82 0.91 0.87 0.89 0.98 0.94 0.86 0.82 0.81 0.77 0.71
0.25 0.42 0.63 0.54 0.43 0.35 0.36 0.33 0.47 0.79 0.93 0.68 0.59 0.52 0.44 0.38 0.35 0.37 0.40 0.44 0.46 0.45 0.43 0.40 0.40 0.43 0.41 0.42 0.47 0.57 0.64 0.64 0.66 0.69 0.74 0.74 0.75 0.81 0.83 0.85 0.84 0.80 0.78 0.72
0.41 0.49 0.68 0.77 0.68 0.59 0.51 0.37 0.52 1.01 1.18 0.60 0.42 0.45 0.38 0.36 0.38 0.39 0.37 0.34 0.33 0.32 0.32 0.29 0.28 0.28 0.29 0.32 0.38 0.43 0.46 0.48 0.50 0.50 0.52 0.54 0.59 0.62 0.63 0.65 0.68 0.68 0.68 0.65
0.47 0.72 0.72 0.61 0.51 0.57 0.55 0.43 0.50 0.74 0.61 0.50 0.35 0.33 0.37 0.35 0.37 0.37 0.32 0.27 0.21 0.19 0.19 0.17 0.17 0.19 0.20 0.22 0.26 0.31 0.35 0.40 0.44 0.45 0.44 0.45 0.47 0.50 0.51 0.50 0.49 0.49 0.51 0.53
0.46 0.74 0.79 0.64 0.37 0.39 0.40 0.32 0.37 0.45 0.37 0.32 0.25 0.30 0.26 0.26 0.30 0.32 0.26 0.19 0.15 0.14 0.12 0.11 0.11 0.12 0.14 0.15 0.18 0.22 0.28 0.32 0.35 0.39 0.40 0.42 0.42 0.42 0.43 0.43 0.41 0.39 0.40 0.43
0.43 0.65 0.89 0.69 0.35 0.37 0.39 0.29 0.31 0.35 0.28 0.25 0.27 0.24 0.17 0.20 0.27 0.31 0.25 0.17 0.12 0.10 0.09 0.09 0.09 0.09 0.09 0.10 0.16 0.22 0.26 0.26 0.28 0.30 0.30 0.31 0.33 0.36 0.37 0.39 0.42 0.47 0.51 0.52
0.23 0.43 0.73 0.65 0.51 0.55 0.36 0.22 0.21 0.24 0.21 0.17 0.16 0.11 0.11 0.16 0.18 0.19 0.20 0.17 0.12 0.07 0.06 0.06 0.06 0.06 0.06 0.09 0.13 0.20 0.28 0.31 0.33 0.36 0.35 0.32 0.33 0.39 0.45 0.51 0.57 0.65 0.72 0.76
0.09 0.30 0.59 0.51 0.40 0.26 0.16 0.13 0.14 0.17 0.17 0.10 0.08 0.06 0.06 0.07 0.14 0.17 0.15 0.16 0.13 0.08 0.05 0.05 0.05 0.06 0.08 0.10 0.12 0.17 0.26 0.32 0.37 0.42 0.45 0.46 0.48 0.56 0.62 0.71 0.79 0.81 0.87 0.87
0.05 0.17 0.45 0.41 0.29 0.13 0.08 0.04 0.04 0.09 0.14 0.05 0.04 0.04 0.04 0.04 0.10 0.13 0.15 0.19 0.19 0.15 0.10 0.07 0.07 0.08 0.11 0.14 0.17 0.23 0.31 0.40 0.47 0.52 0.58 0.60 0.61 0.65 0.67 0.68 0.70 0.70 0.70 0.67
0.11 0.22 0.35 0.31 0.26 0.06 0.02 0.01 0.01 0.07 0.10 0.04 0.04 0.04 0.04 0.05 0.06 0.07 0.10 0.15 0.18 0.20 0.20 0.18 0.18 0.19 0.22 0.26 0.33 0.40 0.47 0.56 0.61 0.62 0.65 0.66 0.63 0.63 0.59 0.51 0.46 0.43 0.40 0.36
0.05 0.11 0.14 0.17 0.26 0.10 0.03 0.02 0.04 0.05 0.03 0.02 0.03 0.04 0.04 0.04 0.04 0.04 0.06 0.09 0.12 0.15 0.20 0.25 0.28 0.29 0.30 0.36 0.44 0.51 0.55 0.57 0.54 0.48 0.44 0.41 0.36 0.33 0.31 0.27 0.25 0.24 0.23 0.22
0.05 0.07 0.08 0.10 0.10 0.05 0.03 0.03 0.03 0.03 0.04 0.03 0.03 0.03 0.04 0.04 0.05 0.05 0.04 0.05 0.06 0.08 0.09 0.13 0.18 0.22 0.22 0.23 0.26 0.29 0.27 0.24 0.21 0.17 0.15 0.15 0.14 0.14 0.15 0.15 0.14 0.14 0.15 0.15
0.07 0.04 0.06 0.08 0.06 0.04 0.03 0.02 0.03 0.03 0.04 0.04 0.03 0.03 0.03 0.04 0.05 0.05 0.05 0.05 0.06 0.07 0.07 0.06 0.07 0.08 0.08 0.07 0.07 0.07 0.07 0.07 0.07 0.07 0.07 0.08 0.08 0.09 0.10 0.10 0.09 0.11 0.12 0.13
0.10 0.07 0.09 0.10 0.06 0.05 0.04 0.03 0.03 0.03 0.03 0.04 0.04 0.04 0.04 0.04 0.04 0.05 0.05 0.05 0.06 0.06 0.06 0.07 0.08 0.08 0.08 0.08 0.07 0.07 0.07 0.06 0.06 0.07 0.08 0.09 0.10 0.11 0.12 0.13 0.13 0.15 0.16 0.19
0.06 0.08 0.11 0.11 0.06 0.05 0.04 0.03 0.03 0.03 0.03 0.03 0.04 0.04 0.04 0.04 0.05 0.05 0.05 0.05 0.05 0.05 0.06 0.06 0.08 0.10 0.10 0.09 0.08 0.08 0.08 0.08 0.09 0.09 0.09 0.10 0.11 0.13 0.14 0.14 0.15 0.18 0.19 0.21